Location: Newark
(42.8481°N, 0.4872°E)
Time: 00:48:29
(UTC+00:00)

Vanguard 3 - All Passes

Search period start: 27 October 2020 00:00
Search period end: 06 November 2020 00:00
Orbit: 507 x 3263 km, 33.4° (Epoch: 26 October)

Date Brightness Start Highest point End Pass type
(mag) Time Alt. Az. Time Alt. Az. Time Alt. Az.
27 Oct - 03:49:27 10° SSW 04:03:13 32° SE 04:19:01 10° E visible
27 Oct - 05:59:49 10° SW 06:17:45 55° SSE 06:35:26 10° E visible
27 Oct - 08:14:12 10° WSW 08:33:45 62° S 08:49:08 10° ESE daylight
27 Oct - 10:31:01 10° W 10:48:33 47° SSW 11:00:28 10° SE daylight
27 Oct - 12:50:43 10° W 13:00:22 19° SW 13:07:39 10° S daylight
28 Oct - 02:38:01 10° S 02:48:07 20° SE 02:59:57 10° E visible
28 Oct - 04:45:20 10° SW 05:01:16 45° SSE 05:19:08 10° E visible
28 Oct - 06:57:57 10° WSW 07:16:53 62° S 07:34:08 10° E daylight
28 Oct - 09:13:33 10° W 09:32:42 57° SSW 09:46:50 10° ESE daylight
28 Oct - 11:31:24 10° W 11:46:10 33° SW 11:56:30 10° SSE daylight
29 Oct - 03:32:02 10° SSW 03:45:27 34° SE 04:01:48 10° E visible
29 Oct - 05:42:35 10° SW 06:00:00 57° SSE 06:18:23 10° E visible
29 Oct - 07:56:44 10° W 08:16:07 62° S 08:32:24 10° ESE daylight
29 Oct - 10:13:19 10° W 10:31:04 45° SSW 10:43:49 10° SE daylight
29 Oct - 12:33:28 10° W 12:43:01 18° SW 12:50:31 10° SSW daylight
30 Oct - 02:20:21 10° S 02:30:27 22° SE 02:42:55 10° E visible
30 Oct - 04:28:11 10° SW 04:43:30 48° SSE 05:01:51 10° E visible
30 Oct - 06:40:42 10° WSW 06:59:10 63° S 07:17:11 10° E daylight
30 Oct - 08:56:00 10° W 09:15:06 56° SSW 09:30:06 10° SE daylight
30 Oct - 11:13:48 10° W 11:28:42 31° SW 11:39:38 10° SSE daylight
31 Oct - 01:13:40 10° SE 01:16:14 11° SE 01:18:56 10° ESE visible
31 Oct - 03:14:52 10° SSW 03:27:45 36° SE 03:44:23 10° E visible
31 Oct - 05:25:30 10° WSW 05:42:14 59° SSE 06:01:10 10° E visible
31 Oct - 07:39:25 10° W 07:58:26 62° S 08:15:30 10° ESE daylight
31 Oct - 09:55:43 10° W 10:13:30 43° SSW 10:27:00 10° SE daylight
31 Oct - 12:16:23 10° W 12:25:34 17° SW 12:33:05 10° SSW daylight
01 Nov - 02:02:59 10° S 02:12:52 24° SE 02:25:38 10° E visible
01 Nov - 04:11:12 10° SW 04:25:47 50° SSE 04:44:24 10° E visible
01 Nov - 06:23:35 10° WSW 06:41:25 63° S 07:00:04 10° ESE daylight
01 Nov - 08:38:34 10° W 08:57:25 54° SSW 09:13:13 10° SE daylight
01 Nov - 10:56:19 10° W 11:11:06 29° SW 11:22:35 10° S daylight
02 Nov - 00:54:33 10° SE 00:58:46 12° SE 01:03:31 10° ESE visible
02 Nov - 02:57:55 10° SSW 03:10:07 38° SE 03:26:50 10° E visible
02 Nov - 05:08:34 10° WSW 05:24:32 60° SSE 05:43:49 10° E visible
02 Nov - 07:22:12 10° W 07:40:42 61° S 07:58:28 10° ESE daylight
02 Nov - 09:38:14 10° W 09:55:47 41° SSW 10:09:59 10° SSE daylight
02 Nov - 11:59:34 10° W 12:08:02 15° SW 12:15:16 10° SSW daylight
03 Nov - 01:45:53 10° S 01:55:21 25° SE 02:08:13 10° E visible
03 Nov - 03:54:24 10° SW 04:08:09 52° SSE 04:26:51 10° E visible
03 Nov - 06:06:37 10° WSW 06:23:42 63° S 06:42:49 10° ESE visible
03 Nov - 08:21:15 10° W 08:39:39 52° SSW 08:56:09 10° SE daylight
03 Nov - 10:38:58 10° W 10:53:25 27° SW 11:05:16 10° S daylight
04 Nov - 00:36:33 10° SSE 00:41:23 13° SE 00:47:06 10° ESE visible
04 Nov - 02:41:08 10° SSW 02:52:36 40° SSE 03:09:10 10° E visible
04 Nov - 04:51:47 10° WSW 05:06:53 61° S 05:26:21 10° E visible
04 Nov - 07:05:08 10° W 07:22:56 59° SSW 07:41:16 10° ESE daylight
04 Nov - 09:20:54 10° W 09:38:01 39° SW 09:52:47 10° SSE daylight
04 Nov - 11:43:13 10° WSW 11:50:24 13° SW 11:56:51 10° SSW daylight
05 Nov - 01:29:00 10° S 01:37:57 27° SE 01:50:39 10° E visible
05 Nov - 03:37:44 10° SW 03:50:38 53° SSE 04:09:10 10° E visible
05 Nov - 05:49:47 10° WSW 06:06:01 63° S 06:25:25 10° ESE visible
05 Nov - 08:04:06 10° W 08:21:52 49° SSW 08:38:54 10° SE daylight
05 Nov - 10:21:49 10° W 10:35:41 25° SW 10:47:40 10° S daylight
